Tracking 18030 objects as of 29-March-2017
HD Live streaming from Space Station
objects crossing your sky now

USA 81

Track USA 81 now!
10-day predictions
USA 81 is classified as:


NORAD ID: 21949
Int'l Code: 1992-023A
Perigee: 792.1 km
Apogee: 796.4 km
Inclination: 85.0 °
Period: 100.6 minutes
Semi major axis: 7165 km
RCS: Unknown
Launch date: April 25, 1992
Source: United States (US)
Launch site: AIR FORCE WESTERN TEST RANGE (AFWTR)
Your satellite tracking list
Your tracking list is empty





NASA's NSSDC Master Catalog

Two Line Element Set (TLE):
1 21949U 92023A   17086.05585843 0.00000030  00000-0  11336-4 0    05
2 21949  85.0043 215.7911 0003000  26.0644 333.9355 14.31377454    08
Source of the keplerian elements: McCants